BAW641 LIMJ-LFSB

Flight info

Callsign BAW641
Flight time 1h 11m
Altitude 36000
Route DCT LAGEN Q712 TESTO DCT DEVOX DCT VOG DCT DESIP DCT PEPAG DCT ABESI N851 ELMUR T718 RIGVI DCT
Aircraft A321/M-SDE3FGIJ1KRWXY/SB1

Departure

Time 2026-04-26 13:58
Airport Genoa Cristoforo Colombo Airport (LIMJ)

Arrival

Time 2026-04-26 15:09
Airport EuroAirport Basel–Mulhouse–Freiburg (LFSB)
Time Latitude Longitude Altitude Speed Heading
2026-04-26 13:29 44.41539 8.84953 18 ft 0 kts 104°
2026-04-26 13:47 44.41539 8.84952 18 ft 0 kts 104°
2026-04-26 13:47 44.41541 8.84943 18 ft 3 kts 104°
2026-04-26 13:48 44.41545 8.84918 18 ft 3 kts 104°
2026-04-26 13:48 44.41550 8.84893 18 ft 3 kts 104°
2026-04-26 13:48 44.41554 8.84868 18 ft 3 kts 104°
2026-04-26 13:48 44.41559 8.84844 19 ft 3 kts 130°
2026-04-26 13:49 44.41575 8.84831 19 ft 3 kts 192°
2026-04-26 13:49 44.41584 8.84835 18 ft 0 kts 217°
2026-04-26 13:50 44.41583 8.84835 19 ft 0 kts 217°
2026-04-26 13:50 44.41576 8.84827 19 ft 2 kts 217°
2026-04-26 13:50 44.41558 8.84807 18 ft 4 kts 217°
2026-04-26 13:50 44.41528 8.84777 20 ft 6 kts 216°
2026-04-26 13:51 44.41493 8.84729 18 ft 8 kts 231°
2026-04-26 13:51 44.41459 8.84673 18 ft 7 kts 227°
2026-04-26 13:51 44.41412 8.84673 20 ft 8 kts 135°
2026-04-26 13:51 44.41379 8.84747 20 ft 10 kts 123°
2026-04-26 13:52 44.41338 8.84833 19 ft 12 kts 123°
2026-04-26 13:52 44.41293 8.84937 20 ft 13 kts 116°
2026-04-26 13:52 44.41262 8.85069 18 ft 15 kts 106°
2026-04-26 13:52 44.41231 8.85209 18 ft 14 kts 111°
2026-04-26 13:53 44.41154 8.85254 17 ft 15 kts 189°
2026-04-26 13:53 44.41105 8.85239 15 ft 1 kts 194°
2026-04-26 13:53 44.41103 8.85238 15 ft 0 kts 194°
2026-04-26 13:55 44.41102 8.85238 16 ft 1 kts 194°
2026-04-26 13:55 44.41087 8.85230 14 ft 6 kts 203°
2026-04-26 13:55 44.40964 8.85360 17 ft 14 kts 111°
2026-04-26 13:56 44.40934 8.85488 19 ft 14 kts 106°
2026-04-26 13:56 44.40908 8.85621 20 ft 14 kts 104°
2026-04-26 13:56 44.40885 8.85748 22 ft 14 kts 103°
2026-04-26 13:56 44.40862 8.85890 21 ft 16 kts 99°
2026-04-26 13:57 44.40866 8.86044 24 ft 15 kts 122°
2026-04-26 13:57 44.40839 8.85986 24 ft 12 kts 289°
2026-04-26 13:57 44.40873 8.85819 23 ft 40 kts 285°
2026-04-26 13:57 44.41025 8.85064 14 ft 118 kts 286°
2026-04-26 13:58 44.41287 8.83674 44 ft 173 kts 285°
2026-04-26 13:58 44.41620 8.81976 561 ft 183 kts 285°
2026-04-26 13:58 44.41833 8.80264 1268 ft 182 kts 264°
2026-04-26 13:58 44.41346 8.78601 1677 ft 190 kts 227°
2026-04-26 13:59 44.40213 8.77691 2091 ft 193 kts 191°
2026-04-26 13:59 44.38902 8.77889 2549 ft 196 kts 157°
2026-04-26 13:59 44.37680 8.78761 3045 ft 197 kts 153°
2026-04-26 14:00 44.33967 8.81376 4481 ft 203 kts 162°
2026-04-26 14:00 44.32561 8.81629 4949 ft 204 kts 182°
2026-04-26 14:00 44.31619 8.81558 5263 ft 206 kts 182°
2026-04-26 14:01 44.29698 8.81428 5909 ft 208 kts 182°
2026-04-26 14:01 44.28243 8.81331 6514 ft 210 kts 182°
2026-04-26 14:01 44.26776 8.81234 7102 ft 212 kts 182°
2026-04-26 14:01 44.25290 8.81136 7671 ft 215 kts 182°
2026-04-26 14:02 44.23791 8.81037 8238 ft 217 kts 182°
2026-04-26 14:02 44.22290 8.80936 8784 ft 220 kts 182°
2026-04-26 14:02 44.20753 8.80833 9330 ft 222 kts 182°
2026-04-26 14:02 44.19197 8.80730 9867 ft 224 kts 182°
2026-04-26 14:03 44.17638 8.80629 10414 ft 226 kts 182°
2026-04-26 14:03 44.16062 8.80520 10954 ft 227 kts 185°
2026-04-26 14:03 44.14591 8.79748 11438 ft 232 kts 218°
2026-04-26 14:03 44.13671 8.77905 11799 ft 241 kts 253°
2026-04-26 14:04 44.13574 8.75504 11941 ft 259 kts 273°
2026-04-26 14:04 44.13674 8.72890 12130 ft 279 kts 273°
2026-04-26 14:04 44.13867 8.70188 12724 ft 283 kts 284°
2026-04-26 14:04 44.14606 8.67647 13386 ft 285 kts 303°
2026-04-26 14:05 44.15895 8.65502 13765 ft 299 kts 321°
2026-04-26 14:05 44.17737 8.63963 13902 ft 320 kts 336°
2026-04-26 14:05 44.19823 8.62636 14031 ft 341 kts 336°
2026-04-26 14:05 44.22008 8.61233 14194 ft 358 kts 335°
2026-04-26 14:06 44.24300 8.59747 14656 ft 365 kts 335°
2026-04-26 14:06 44.26613 8.58236 15235 ft 369 kts 335°
2026-04-26 14:06 44.28949 8.56701 15833 ft 372 kts 335°
2026-04-26 14:06 44.31299 8.55155 16407 ft 374 kts 335°
2026-04-26 14:07 44.33668 8.53599 16965 ft 377 kts 335°
2026-04-26 14:07 44.36133 8.52336 17519 ft 380 kts 346°
2026-04-26 14:07 44.38769 8.51881 18040 ft 383 kts 360°
2026-04-26 14:07 44.41424 8.52288 18552 ft 386 kts 13°
2026-04-26 14:08 44.43960 8.53563 19040 ft 390 kts 26°
2026-04-26 14:08 44.46319 8.55473 19535 ft 393 kts 30°
2026-04-26 14:08 44.48679 8.57437 20000 ft 396 kts 30°
2026-04-26 14:08 44.51063 8.59409 20466 ft 399 kts 29°
2026-04-26 14:09 44.53467 8.61391 20926 ft 402 kts 29°
2026-04-26 14:09 44.55880 8.63380 21373 ft 404 kts 29°
2026-04-26 14:09 44.58277 8.65360 21797 ft 407 kts 29°
2026-04-26 14:09 44.60728 8.67386 22205 ft 410 kts 29°
2026-04-26 14:10 44.63200 8.69425 22636 ft 412 kts 29°
2026-04-26 14:10 44.65684 8.71469 23049 ft 415 kts 28°
2026-04-26 14:10 44.68182 8.73521 23455 ft 418 kts 28°
2026-04-26 14:10 44.70698 8.75589 23841 ft 420 kts 28°
2026-04-26 14:11 44.74914 8.79064 24497 ft 424 kts 28°
2026-04-26 14:11 44.77465 8.81179 24877 ft 427 kts 28°
2026-04-26 14:11 44.80896 8.84034 25358 ft 430 kts 28°
2026-04-26 14:12 44.82601 8.85456 25598 ft 431 kts 29°
2026-04-26 14:12 44.85190 8.87618 25956 ft 434 kts 29°
2026-04-26 14:12 44.87795 8.89795 26304 ft 436 kts 28°
2026-04-26 14:12 44.90414 8.91982 26647 ft 438 kts 28°
2026-04-26 14:13 44.95772 8.96133 27304 ft 441 kts 20°
2026-04-26 14:13 44.98688 8.97449 27615 ft 440 kts 11°
2026-04-26 14:13 45.01708 8.98202 27929 ft 441 kts
2026-04-26 14:14 45.04747 8.98884 28245 ft 443 kts
2026-04-26 14:14 45.07797 8.99575 28552 ft 445 kts
2026-04-26 14:14 45.10869 9.00274 28851 ft 447 kts
2026-04-26 14:14 45.13945 9.00974 29142 ft 449 kts
2026-04-26 14:15 45.17039 9.01681 29420 ft 451 kts
2026-04-26 14:15 45.20111 9.02381 29693 ft 453 kts
2026-04-26 14:15 45.23262 9.03098 29956 ft 455 kts
2026-04-26 14:15 45.26396 9.03813 30207 ft 456 kts
2026-04-26 14:16 45.29497 9.04521 30436 ft 458 kts
2026-04-26 14:16 45.32647 9.05241 30699 ft 458 kts
2026-04-26 14:16 45.35800 9.05962 31018 ft 457 kts
2026-04-26 14:16 45.38940 9.06683 31324 ft 457 kts
2026-04-26 14:17 45.42073 9.07402 31622 ft 456 kts
2026-04-26 14:17 45.45210 9.08123 31920 ft 456 kts
2026-04-26 14:17 45.48332 9.08842 32217 ft 455 kts
2026-04-26 14:17 45.51457 9.09564 32506 ft 454 kts
2026-04-26 14:18 45.54573 9.10284 32786 ft 454 kts
2026-04-26 14:18 45.57695 9.11003 33074 ft 453 kts
2026-04-26 14:18 45.60813 9.11719 33361 ft 453 kts
2026-04-26 14:18 45.63930 9.12279 33637 ft 450 kts
2026-04-26 14:19 45.67043 9.12202 33910 ft 447 kts 352°
2026-04-26 14:19 45.70128 9.11700 34170 ft 446 kts 351°
2026-04-26 14:19 45.73214 9.11196 34430 ft 445 kts 351°
2026-04-26 14:19 45.76297 9.10697 34689 ft 445 kts 351°
2026-04-26 14:20 45.79367 9.10204 34946 ft 445 kts 351°
2026-04-26 14:20 45.82411 9.09718 35194 ft 445 kts 351°
2026-04-26 14:20 45.85492 9.09228 35446 ft 445 kts 351°
2026-04-26 14:20 45.88557 9.08739 35695 ft 444 kts 351°
2026-04-26 14:21 45.91632 9.08242 35937 ft 444 kts 351°
2026-04-26 14:21 45.94706 9.07743 36070 ft 444 kts 351°
2026-04-26 14:21 45.97773 9.07245 36092 ft 443 kts 351°
2026-04-26 14:22 46.03884 9.06256 36082 ft 442 kts 351°
2026-04-26 14:22 46.09987 9.05265 36082 ft 442 kts 351°
2026-04-26 14:23 46.16065 9.04267 36081 ft 441 kts 351°
2026-04-26 14:23 46.22176 9.03374 36091 ft 442 kts 352°
2026-04-26 14:24 46.28305 9.02602 36097 ft 443 kts 352°
2026-04-26 14:24 46.34446 9.01827 36100 ft 443 kts 352°
2026-04-26 14:25 46.40588 9.01007 36109 ft 443 kts 352°
2026-04-26 14:25 46.46724 9.00169 36116 ft 443 kts 352°
2026-04-26 14:26 46.52825 8.99348 36131 ft 444 kts 352°
2026-04-26 14:26 46.58971 8.98519 36145 ft 443 kts 352°
2026-04-26 14:27 46.65098 8.97691 36149 ft 443 kts 352°
2026-04-26 14:27 46.71240 8.96853 36160 ft 443 kts 352°
2026-04-26 14:28 46.77384 8.96020 36165 ft 443 kts 352°
2026-04-26 14:28 46.83538 8.95182 36164 ft 443 kts 352°
2026-04-26 14:29 46.89676 8.94342 36167 ft 444 kts 352°
2026-04-26 14:29 46.95826 8.93509 36174 ft 444 kts 352°
2026-04-26 14:30 47.01981 8.92664 36182 ft 444 kts 352°
2026-04-26 14:30 47.08138 8.91814 36189 ft 444 kts 352°
2026-04-26 14:31 47.14239 8.90631 36200 ft 440 kts 342°
2026-04-26 14:31 47.19822 8.87143 36202 ft 433 kts 326°
2026-04-26 14:32 47.24996 8.82584 36203 ft 434 kts 326°
2026-04-26 14:32 47.30198 8.78043 36205 ft 434 kts 326°
2026-04-26 14:33 47.35362 8.73516 36207 ft 434 kts 326°
2026-04-26 14:33 47.40552 8.68936 36208 ft 435 kts 326°
2026-04-26 14:34 47.45748 8.64353 36208 ft 435 kts 326°
2026-04-26 14:34 47.50941 8.59757 36207 ft 435 kts 326°
2026-04-26 14:35 47.56133 8.55147 36208 ft 435 kts 326°
2026-04-26 14:35 47.61320 8.50521 36208 ft 435 kts 326°
2026-04-26 14:35 47.63914 8.48198 35999 ft 435 kts 326°
2026-04-26 14:36 47.66487 8.45837 35748 ft 433 kts 322°
2026-04-26 14:36 47.68827 8.43038 35489 ft 430 kts 313°
2026-04-26 14:36 47.70828 8.39778 35251 ft 427 kts 304°
2026-04-26 14:36 47.72565 8.36208 34751 ft 428 kts 303°
2026-04-26 14:37 47.74301 8.32595 33901 ft 432 kts 303°
2026-04-26 14:37 47.76059 8.28940 33037 ft 435 kts 303°
2026-04-26 14:37 47.77821 8.25279 32155 ft 438 kts 303°
2026-04-26 14:37 47.79601 8.21581 31343 ft 438 kts 303°
2026-04-26 14:38 47.81356 8.17932 30843 ft 431 kts 303°
2026-04-26 14:38 47.83091 8.14313 30269 ft 427 kts 303°
2026-04-26 14:38 47.84782 8.10779 29708 ft 423 kts 302°
2026-04-26 14:38 47.85928 8.08377 29339 ft 420 kts 303°
2026-04-26 14:39 47.88148 8.03717 28586 ft 413 kts 302°
2026-04-26 14:39 47.89802 8.00234 28033 ft 409 kts 302°
2026-04-26 14:39 47.91436 7.96787 27484 ft 404 kts 303°
2026-04-26 14:39 47.93048 7.93387 26929 ft 400 kts 303°
2026-04-26 14:40 47.94645 7.90012 26372 ft 396 kts 303°
2026-04-26 14:40 47.96218 7.86681 25840 ft 391 kts 303°
2026-04-26 14:40 47.97778 7.83369 25306 ft 387 kts 302°
2026-04-26 14:40 47.99317 7.80095 24790 ft 384 kts 303°
2026-04-26 14:41 48.00885 7.76840 24257 ft 389 kts 303°
2026-04-26 14:41 48.02469 7.73561 23736 ft 390 kts 303°
2026-04-26 14:41 48.04046 7.70280 23205 ft 387 kts 304°
2026-04-26 14:41 48.05613 7.67013 22708 ft 385 kts 303°
2026-04-26 14:42 48.07142 7.63811 22197 ft 382 kts 303°
2026-04-26 14:42 48.08678 7.60584 21717 ft 379 kts 303°
2026-04-26 14:42 48.10217 7.57338 21202 ft 377 kts 303°
2026-04-26 14:42 48.11695 7.54203 20712 ft 372 kts 303°
2026-04-26 14:43 48.13185 7.51041 20204 ft 370 kts 303°
2026-04-26 14:43 48.14657 7.47903 19699 ft 367 kts 303°
2026-04-26 14:43 48.16114 7.44782 19201 ft 365 kts 303°
2026-04-26 14:43 48.17561 7.41665 18696 ft 363 kts 303°
2026-04-26 14:44 48.18989 7.38570 18204 ft 360 kts 302°
2026-04-26 14:44 48.20045 7.35221 17692 ft 355 kts 283°
2026-04-26 14:44 48.20217 7.31572 17190 ft 351 kts 262°
2026-04-26 14:44 48.19495 7.28148 16694 ft 351 kts 242°
2026-04-26 14:45 48.17961 7.25331 16178 ft 351 kts 220°
2026-04-26 14:45 48.16573 7.24002 15854 ft 352 kts 206°
2026-04-26 14:45 48.13412 7.23089 15190 ft 353 kts 177°
2026-04-26 14:45 48.11020 7.23896 14692 ft 354 kts 162°
2026-04-26 14:46 48.08709 7.25147 14193 ft 352 kts 160°
2026-04-26 14:46 48.06421 7.26417 13689 ft 350 kts 160°
2026-04-26 14:46 48.04147 7.27677 13187 ft 347 kts 160°
2026-04-26 14:46 48.01889 7.28929 12688 ft 345 kts 160°
2026-04-26 14:47 47.99650 7.30162 12190 ft 342 kts 160°
2026-04-26 14:47 47.97439 7.31371 11686 ft 339 kts 160°
2026-04-26 14:47 47.96378 7.31946 11446 ft 337 kts 160°
2026-04-26 14:47 47.94294 7.32917 10977 ft 334 kts 162°
2026-04-26 14:48 47.92106 7.34050 10476 ft 332 kts 160°
2026-04-26 14:48 47.89938 7.35197 9975 ft 329 kts 160°
2026-04-26 14:48 47.87803 7.36317 9604 ft 321 kts 160°
2026-04-26 14:48 47.85728 7.37389 9361 ft 311 kts 160°
2026-04-26 14:49 47.83708 7.38423 9114 ft 302 kts 160°
2026-04-26 14:49 47.81764 7.39411 8863 ft 294 kts 160°
2026-04-26 14:49 47.79824 7.40391 8608 ft 288 kts 160°
2026-04-26 14:49 47.77947 7.41336 8355 ft 283 kts 160°
2026-04-26 14:50 47.76112 7.42259 8107 ft 281 kts 160°
2026-04-26 14:50 47.74263 7.43187 7860 ft 280 kts 160°
2026-04-26 14:50 47.72427 7.44109 7718 ft 279 kts 160°
2026-04-26 14:50 47.70601 7.45083 7593 ft 279 kts 159°
2026-04-26 14:51 47.68786 7.46092 7467 ft 278 kts 159°
2026-04-26 14:51 47.66974 7.47104 7342 ft 278 kts 158°
2026-04-26 14:51 47.65162 7.48103 7218 ft 277 kts 161°
2026-04-26 14:51 47.64143 7.48427 7139 ft 278 kts 176°
2026-04-26 14:52 47.62257 7.47984 7014 ft 277 kts 204°
2026-04-26 14:52 47.60734 7.46285 7000 ft 276 kts 232°
2026-04-26 14:52 47.59918 7.43743 7010 ft 275 kts 260°
2026-04-26 14:52 47.59839 7.40915 7011 ft 276 kts 273°
2026-04-26 14:53 47.59938 7.38080 7013 ft 276 kts 274°
2026-04-26 14:53 47.60059 7.35243 7013 ft 276 kts 275°
2026-04-26 14:53 47.60360 7.32449 7008 ft 275 kts 282°
2026-04-26 14:53 47.60767 7.29673 7014 ft 275 kts 283°
2026-04-26 14:54 47.61184 7.26905 6998 ft 275 kts 283°
2026-04-26 14:54 47.61603 7.24141 7001 ft 275 kts 283°
2026-04-26 14:54 47.62023 7.21370 7002 ft 275 kts 283°
2026-04-26 14:54 47.62372 7.18577 6998 ft 276 kts 272°
2026-04-26 14:55 47.62003 7.15818 7001 ft 271 kts 244°
2026-04-26 14:55 47.60860 7.13742 7000 ft 254 kts 214°
2026-04-26 14:55 47.59288 7.12852 7002 ft 236 kts 182°
2026-04-26 14:55 47.57710 7.13119 6969 ft 226 kts 166°
2026-04-26 14:56 47.56187 7.13689 6669 ft 225 kts 163°
2026-04-26 14:56 47.54700 7.14293 6359 ft 224 kts 163°
2026-04-26 14:56 47.53203 7.14909 6050 ft 223 kts 163°
2026-04-26 14:56 47.51718 7.15522 5765 ft 219 kts 163°
2026-04-26 14:57 47.50250 7.16136 5712 ft 220 kts 163°
2026-04-26 14:57 47.48906 7.17177 5711 ft 219 kts 133°
2026-04-26 14:57 47.47960 7.18942 5714 ft 219 kts 123°
2026-04-26 14:57 47.47275 7.20939 5715 ft 218 kts 106°
2026-04-26 14:58 47.46830 7.23093 5710 ft 219 kts 106°
2026-04-26 14:58 47.46390 7.25241 5712 ft 219 kts 106°
2026-04-26 14:58 47.45955 7.27361 5714 ft 207 kts 106°
2026-04-26 14:58 47.45557 7.29305 5737 ft 196 kts 105°
2026-04-26 14:59 47.45157 7.31263 5720 ft 196 kts 105°
2026-04-26 14:59 47.44767 7.33165 5713 ft 196 kts 106°
2026-04-26 14:59 47.44370 7.35090 5712 ft 196 kts 106°
2026-04-26 14:59 47.44236 7.35741 5710 ft 196 kts 106°
2026-04-26 15:00 47.43575 7.38935 5708 ft 196 kts 106°
2026-04-26 15:00 47.43176 7.40866 5706 ft 196 kts 105°
2026-04-26 15:00 47.42778 7.42791 5714 ft 196 kts 106°
2026-04-26 15:00 47.42380 7.44712 5721 ft 196 kts 106°
2026-04-26 15:01 47.41982 7.46637 5719 ft 196 kts 105°
2026-04-26 15:01 47.41584 7.48566 5715 ft 196 kts 106°
2026-04-26 15:01 47.41186 7.50494 5720 ft 196 kts 106°
2026-04-26 15:01 47.40788 7.52418 5722 ft 196 kts 106°
2026-04-26 15:02 47.40188 7.54212 5721 ft 198 kts 132°
2026-04-26 15:02 47.39137 7.55522 5726 ft 199 kts 142°
2026-04-26 15:02 47.38016 7.56718 5733 ft 199 kts 143°
2026-04-26 15:02 47.37268 7.57500 5743 ft 199 kts 143°
2026-04-26 15:03 47.36159 7.58713 5760 ft 198 kts 135°
2026-04-26 15:03 47.35521 7.60463 5759 ft 196 kts 97°
2026-04-26 15:03 47.35763 7.62343 5760 ft 188 kts 58°
2026-04-26 15:03 47.36768 7.63531 5769 ft 189 kts 18°
2026-04-26 15:04 47.38067 7.63836 5785 ft 190 kts
2026-04-26 15:04 47.39388 7.63961 5784 ft 190 kts
2026-04-26 15:04 47.40704 7.64029 5707 ft 191 kts
2026-04-26 15:04 47.42021 7.64094 5450 ft 188 kts
2026-04-26 15:05 47.43314 7.63785 5020 ft 193 kts 337°
2026-04-26 15:05 47.44123 7.63229 4771 ft 194 kts 336°
2026-04-26 15:05 47.45722 7.62119 4333 ft 186 kts 336°
2026-04-26 15:05 47.46855 7.61332 4068 ft 173 kts 336°
2026-04-26 15:06 47.47905 7.60605 3809 ft 161 kts 336°
2026-04-26 15:06 47.48885 7.59928 3562 ft 155 kts 336°
2026-04-26 15:06 47.49852 7.59259 3318 ft 153 kts 336°
2026-04-26 15:06 47.50810 7.58596 3087 ft 152 kts 336°
2026-04-26 15:07 47.52716 7.57275 2623 ft 150 kts 336°
2026-04-26 15:07 47.53654 7.56626 2378 ft 148 kts 336°
2026-04-26 15:07 47.54581 7.55982 2155 ft 146 kts 336°
2026-04-26 15:08 47.55503 7.55343 1924 ft 151 kts 337°
2026-04-26 15:08 47.56443 7.54690 1694 ft 146 kts 336°
2026-04-26 15:08 47.57353 7.54058 1462 ft 144 kts 336°
2026-04-26 15:08 47.58256 7.53431 1254 ft 143 kts 335°
2026-04-26 15:09 47.59160 7.52818 1001 ft 141 kts 334°
2026-04-26 15:09 47.60041 7.52178 896 ft 138 kts 336°
2026-04-26 15:09 47.60674 7.51756 888 ft 56 kts 335°
2026-04-26 15:09 47.60813 7.51657 889 ft 15 kts 334°
2026-04-26 15:10 47.60956 7.51569 888 ft 19 kts 341°
2026-04-26 15:10 47.61039 7.51581 887 ft 19 kts 40°
2026-04-26 15:10 47.61082 7.51689 887 ft 8 kts 71°
2026-04-26 15:10 47.61061 7.51768 887 ft 10 kts 142°
2026-04-26 15:11 47.60994 7.51818 887 ft 12 kts 156°
2026-04-26 15:11 47.60910 7.51872 887 ft 14 kts 156°
2026-04-26 15:11 47.60814 7.51940 886 ft 16 kts 154°
2026-04-26 15:11 47.60768 7.51974 886 ft 17 kts 154°
2026-04-26 15:12 47.60678 7.52038 886 ft 15 kts 154°
2026-04-26 15:12 47.60580 7.52108 887 ft 17 kts 155°
2026-04-26 15:12 47.60469 7.52185 887 ft 18 kts 154°
2026-04-26 15:12 47.60388 7.52245 887 ft 11 kts 154°
2026-04-26 15:13 47.60310 7.52297 887 ft 13 kts 156°
2026-04-26 15:13 47.60220 7.52356 887 ft 12 kts 155°
2026-04-26 15:13 47.60140 7.52411 887 ft 14 kts 155°
2026-04-26 15:13 47.60048 7.52475 887 ft 15 kts 154°
2026-04-26 15:14 47.59947 7.52547 887 ft 17 kts 154°
2026-04-26 15:14 47.59859 7.52623 887 ft 15 kts 130°
2026-04-26 15:14 47.59860 7.52714 887 ft 8 kts 66°
2026-04-26 15:14 47.59868 7.52738 887 ft 2 kts 62°
2026-04-26 15:15 47.59879 7.52764 887 ft 4 kts 57°
2026-04-26 15:15 47.59886 7.52781 887 ft 0 kts 59°